Temperature
30 31 32 32 32 32 32 32 32 32 31 31 31 31 30 29 29 28 27 26 25 25 24 23 22 22 21 21 21 20 20 19 19 19 18 18 18 17 17 17 16 16 16 16
28 30 31 31 32 32 32 32 32 32 31 32 31 30 29 29 28 28 27 26 25 24 23 22 22 21 21 21 20 20 20 19 19 18 18 18 17 17 17 17 16 16 16 16
27 29 30 30 31 32 32 33 32 32 31 32 30 30 29 28 28 27 27 26 25 24 23 22 21 21 21 20 20 20 19 19 18 18 18 17 17 16 16 16 16 16 16 15
27 28 27 30 33 33 32 32 33 33 32 32 31 29 28 28 27 27 26 25 24 23 22 22 21 21 21 20 20 19 19 19 18 17 17 17 16 16 16 16 16 15 15 15
26 27 28 30 32 32 31 31 32 32 31 31 30 29 28 27 27 26 25 25 24 23 22 22 21 20 20 20 19 19 19 18 18 17 17 16 16 16 16 15 15 15 15 15
26 26 26 29 32 32 32 30 31 31 31 30 29 28 28 27 26 25 24 23 23 22 22 21 21 20 20 19 19 19 18 18 17 17 17 16 16 16 15 15 15 15 14 14
25 26 27 29 31 31 29 28 30 30 30 29 28 28 26 25 25 24 23 22 22 21 21 21 20 20 19 19 18 18 18 17 17 17 17 16 16 15 15 15 15 14 14 14
25 25 26 29 30 29 27 28 28 28 28 27 27 26 25 24 23 23 22 22 21 21 20 20 20 19 19 18 18 18 17 17 17 16 16 16 16 15 15 15 14 14 14 14
25 25 26 27 26 26 27 27 27 27 26 26 25 24 23 23 22 22 21 21 20 20 20 19 19 19 18 18 18 17 17 17 16 16 16 16 15 15 15 14 14 14 13 13
24 25 25 25 25 25 25 26 26 26 25 25 24 24 23 22 21 21 20 20 20 19 19 19 18 18 18 18 17 17 16 16 16 16 15 15 15 15 14 14 14 14 13 13
23 24 24 24 24 24 24 24 25 24 24 24 24 23 22 21 20 20 20 19 19 19 18 18 18 18 17 17 17 16 16 16 15 15 15 15 15 14 14 14 14 14 13 13
22 23 23 23 22 23 23 23 23 23 23 23 22 22 21 20 19 19 19 19 18 18 18 18 17 17 17 17 17 16 16 15 15 15 15 14 14 14 14 14 14 13 13 13
22 22 22 22 22 22 22 22 22 22 22 22 21 21 20 19 19 18 18 18 18 18 18 17 17 17 16 16 16 16 15 15 14 14 14 14 14 14 14 13 13 13 13 12
21 21 21 20 20 20 21 21 21 21 21 21 20 20 19 19 18 18 18 18 17 17 17 17 16 16 16 16 16 15 15 15 14 14 14 14 14 14 14 13 13 13 12 12
20 20 20 20 20 20 20 20 20 20 20 20 19 19 19 18 17 17 17 17 17 16 16 16 16 16 15 15 15 15 14 14 14 14 14 14 14 13 13 13 13 12 12 12
19 19 19 19 19 19 19 19 19 19 19 19 19 18 18 17 17 17 17 16 16 16 16 15 15 15 15 15 14 14 14 14 14 14 14 14 13 13 13 13 12 12 12 12
19 19 19 18 18 18 18 18 18 18 18 18 18 17 17 17 16 16 16 16 16 15 15 15 15 15 15 14 14 14 14 14 14 14 14 14 13 13 13 13 12 12 12 12
18 18 18 18 18 18 18 18 18 17 17 17 17 17 16 16 16 16 15 15 15 15 15 14 14 14 14 14 14 14 14 13 13 13 13 13 13 13 13 12 12 12 12 12
17 17 17 17 17 17 17 17 17 17 17 16 16 16 16 16 15 15 15 15 14 14 14 14 14 14 14 14 14 14 13 13 13 13 13 13 13 13 13 13 12 12 12 11
17 17 17 16 16 16 16 16 16 16 16 16 16 15 15 15 15 15 14 14 14 14 14 14 13 13 13 13 13 13 13 13 13 13 13 13 13 13 12 12 12 12 12 11
16 16 16 16 15 15 15 15 15 15 15 15 15 15 15 14 14 14 14 14 13 13 13 13 13 13 13 13 13 13 13 13 13 13 12 12 12 12 12 12 12 12 11 11
15 15 15 15 15 15 15 15 15 15 15 15 15 14 14 14 14 14 14 13 13 13 13 13 13 13 13 13 13 13 13 13 13 13 12 12 12 12 12 12 12 12 11 11
14 14 14 14 14 14 14 14 14 14 14 14 14 14 14 14 13 13 13 13 13 13 13 13 13 13 13 13 13 13 13 13 13 13 12 12 12 12 12 12 12 11 11 11
13 13 13 13 13 13 13 13 14 14 14 14 14 14 13 13 13 13 13 13 13 13 13 13 13 12 12 12 12 13 12 12 12 12 12 12 12 12 12 11 11 11 11 11
12 13 13 13 13 13 13 13 13 13 13 13 13 13 13 13 13 13 13 13 13 12 12 12 12 12 12 12 12 12 12 12 12 12 12 12 12 12 11 11 11 11 11 10
12 12 12 12 13 13 13 13 13 13 13 13 13 13 13 13 13 13 13 12 12 12 12 12 12 12 12 12 12 12 12 12 12 12 12 12 12 11 11 11 11 11 10 10
12 12 12 12 12 12 13 13 13 13 13 13 13 13 13 13 13 12 12 12 12 12 12 12 12 12 12 12 12 11 11 12 12 12 12 11 11 11 11 11 10 10 10 10
Wind_Speed
16 15 14 16 18 19 18 16 14 10 10 10 8 8 8 11 11 11 11 11 10 10 10 9 9 9 8 8 8 8 8 7 6 5 5 5 4 4 4 4 5 4 4 4
16 17 16 16 17 18 19 17 16 13 7 8 8 8 7 8 10 11 10 11 11 10 10 10 9 8 8 8 8 8 7 7 7 6 5 5 5 5 5 5 5 5 5 6
15 18 17 19 18 17 15 15 14 12 8 7 9 10 9 9 8 9 10 10 11 11 10 9 9 8 8 9 8 8 7 7 7 6 6 5 5 5 5 5 5 5 6 7
14 15 18 14 14 15 15 14 13 9 7 7 8 9 8 8 9 9 9 9 10 10 10 9 9 9 8 9 9 8 7 6 6 6 6 5 5 5 5 5 5 5 6 6
12 15 16 14 13 14 13 11 10 8 6 6 7 8 7 8 8 8 8 8 8 9 9 9 9 9 9 9 8 8 7 7 6 6 6 6 5 6 5 5 5 5 6 6
12 14 14 11 12 11 10 9 7 6 6 7 7 7 5 8 10 10 8 7 7 8 9 8 9 9 8 8 7 7 7 6 6 6 6 6 6 6 6 5 5 6 6 6
15 14 11 7 6 9 11 5 0 2 3 5 3 2 6 8 9 10 9 9 8 8 7 7 8 8 8 8 7 6 6 6 6 6 6 6 6 6 6 6 5 6 6 6
14 14 10 4 7 4 1 3 2 2 4 6 6 7 8 7 8 9 9 9 9 8 7 6 7 8 8 7 7 7 7 6 6 6 6 7 7 6 6 6 6 5 5 6
6 5 1 4 4 4 3 3 3 2 4 6 7 7 8 8 7 8 8 9 8 8 7 6 7 8 8 7 7 8 8 7 7 6 6 6 6 6 5 4 5 5 5 5
2 2 2 1 1 2 2 2 2 2 3 5 6 7 8 7 6 6 7 8 7 8 7 7 8 8 7 8 8 8 8 7 7 7 7 6 4 4 4 3 3 4 4 4
4 3 1 1 1 2 2 2 2 2 2 3 5 8 8 7 6 5 5 6 7 7 7 8 8 8 8 8 8 9 8 7 7 7 7 6 4 3 3 3 2 3 3 3
4 3 3 2 1 1 0 1 3 2 1 3 5 7 8 7 5 5 5 5 6 7 8 8 9 8 8 8 9 9 8 7 6 6 6 6 6 6 10 8 9 10 8 7
3 1 2 2 1 2 1 1 3 3 3 3 4 6 6 6 5 5 5 5 6 7 8 9 9 8 8 8 8 8 8 7 6 6 6 6 6 6 6 6 9 10 9 10
1 2 3 2 1 2 2 1 3 3 2 3 4 5 6 6 5 5 5 5 5 7 8 8 9 8 8 8 7 7 7 6 6 5 6 5 5 5 6 7 6 4 5 7
1 1 2 2 1 0 1 1 2 2 2 3 3 4 6 6 5 5 5 6 7 7 7 7 8 8 7 8 7 7 6 5 4 4 5 5 5 5 5 6 6 6 6 4
1 0 1 1 2 2 1 1 0 1 1 2 2 3 4 5 5 5 6 6 7 6 6 6 7 7 7 7 7 6 4 5 5 4 5 5 5 5 5 6 6 6 6 6
2 2 3 2 1 2 2 2 2 1 1 2 2 3 4 5 6 5 5 6 6 6 5 6 6 6 6 7 7 6 5 6 6 4 5 5 5 5 5 5 6 6 5 7
2 3 2 1 1 1 1 1 2 2 2 2 3 4 4 5 5 5 5 6 6 6 5 5 6 6 6 5 5 4 5 6 5 5 4 4 4 4 5 5 5 6 6 7
2 2 1 2 2 1 1 1 1 1 2 2 3 4 4 4 5 5 5 5 6 6 5 6 7 7 6 6 5 4 5 5 5 4 3 4 4 4 4 4 4 5 6 7
1 1 1 1 1 0 1 1 2 1 1 2 3 3 4 4 5 5 5 4 3 3 5 6 6 6 6 6 5 5 5 6 6 5 4 4 4 4 4 4 4 5 5 5
1 1 2 2 1 1 1 2 2 2 2 2 3 3 3 4 5 5 5 4 3 4 5 7 5 4 4 5 5 4 5 5 5 5 4 4 4 4 4 4 4 4 4 5
2 2 1 1 0 0 1 1 2 2 2 3 3 3 3 4 5 4 4 3 5 6 5 5 5 5 5 5 5 4 5 5 5 5 4 4 4 4 4 4 4 4 4 4
2 1 1 0 0 0 0 1 1 2 2 2 3 3 3 3 3 3 3 4 6 6 5 4 6 8 7 4 4 4 4 4 4 4 5 4 4 4 4 4 4 4 4 4
1 0 0 0 1 1 1 1 1 1 2 2 3 4 4 3 3 3 3 6 6 7 4 7 10 8 6 4 3 3 3 3 4 4 4 5 5 4 4 4 3 3 4 4
1 1 1 1 1 2 2 2 2 3 3 3 4 4 4 3 3 3 4 7 9 7 5 7 8 7 5 4 4 4 3 3 3 3 3 3 4 4 4 4 4 3 4 4
1 2 1 1 2 2 2 2 2 2 2 3 3 3 3 4 4 5 5 7 8 6 5 5 6 5 4 3 3 3 3 3 3 3 2 2 3 3 3 4 4 4 4 4
2 2 2 2 2 2 2 2 2 2 2 3 3 3 3 3 4 5 6 6 6 5 4 4 4 4 3 2 2 2 2 2 2 2 2 2 2 3 3 4 3 4 4 4
Wind_Direction
259 263 248 228 225 227 234 242 245 230 207 201 166 155 156 154 153 147 145 146 141 141 136 135 138 142 141 139 135 135 137 138 139 131 121 113 109 102 90 81 79 68 60 53
251 255 255 249 236 226 227 235 244 243 214 163 142 149 156 160 154 151 153 152 145 139 139 142 144 148 142 138 135 135 139 141 134 128 125 121 115 104 93 83 73 67 64 61
245 241 246 241 236 235 231 230 236 241 220 168 158 163 158 159 160 157 156 152 149 148 148 147 149 145 142 140 139 138 137 136 133 133 132 127 122 112 104 95 84 73 74 76
246 246 241 242 238 237 238 238 233 229 204 181 166 152 154 158 154 154 153 149 145 145 148 149 146 143 141 143 144 143 141 139 138 139 135 125 118 114 108 103 95 87 83 84
236 238 240 240 231 232 232 236 236 226 200 183 162 155 159 147 141 143 144 139 142 144 146 145 144 143 142 144 145 146 144 143 141 138 134 130 122 117 112 108 103 96 89 85
238 239 238 237 227 228 233 231 231 211 199 181 175 193 168 142 138 134 127 121 125 132 136 136 140 141 141 140 142 143 141 139 134 134 133 130 124 120 117 115 112 106 96 88
238 241 245 255 247 220 221 217 231 207 171 157 164 138 126 124 122 121 123 125 127 130 125 128 131 134 136 136 138 135 132 129 129 129 127 124 118 120 123 119 113 108 105 94
232 237 233 264 236 231 123 64 74 85 101 112 104 108 120 125 124 128 131 130 129 121 117 123 130 134 133 135 135 130 127 127 126 128 131 125 123 125 126 128 127 123 120 115
222 231 26 16 68 75 76 82 76 90 114 121 128 132 136 138 135 134 132 130 129 127 125 129 135 137 139 138 135 132 128 128 128 126 117 124 133 138 141 149 150 146 147 137
192 198 236 359 31 67 62 71 82 109 138 142 153 151 139 130 130 134 135 135 136 135 136 137 138 136 137 139 138 136 137 136 136 133 128 126 134 142 148 153 154 149 146 139
208 221 247 335 16 26 62 67 120 145 158 160 153 142 137 136 140 137 134 140 143 143 145 145 142 139 144 145 143 143 144 143 142 141 140 135 115 81 107 78 91 127 122 126
221 221 217 156 35 344 98 135 116 114 114 103 124 131 133 138 141 143 143 142 144 146 150 147 146 146 150 152 150 149 152 156 158 157 150 145 130 100 58 75 78 80 83 95
279 253 111 93 37 357 1 63 98 88 100 109 119 126 128 131 135 139 142 147 155 154 149 147 149 149 151 154 157 159 160 164 165 164 162 166 161 150 131 90 73 72 85 97
32 77 101 99 67 344 355 46 92 92 86 104 118 124 127 131 139 146 148 144 148 152 149 150 150 152 156 157 160 163 164 166 172 170 167 170 168 163 157 153 142 117 95 109
36 101 132 130 177 331 16 62 121 136 121 120 125 130 136 139 147 151 144 137 137 144 149 153 153 154 158 162 166 169 169 170 173 162 162 169 165 160 158 154 149 143 134 126
285 244 170 168 225 223 215 179 133 86 117 117 115 123 134 140 143 142 140 140 145 152 151 152 153 155 160 165 167 169 162 158 163 162 168 166 162 164 162 159 160 157 155 152
227 214 224 201 200 196 201 157 147 176 108 98 114 128 134 138 142 141 145 147 143 139 142 145 150 155 163 166 170 174 167 162 165 172 177 173 172 169 164 166 165 163 159 158
233 224 210 169 199 190 212 119 129 134 127 110 125 133 137 141 144 144 148 145 138 132 137 145 149 156 162 165 171 170 167 168 176 184 180 171 167 166 170 170 171 165 153 155
211 194 197 199 217 212 179 144 120 122 126 139 130 128 134 141 142 138 133 137 147 151 151 145 150 161 162 163 161 170 172 170 173 177 170 159 170 174 168 166 164 161 159 159
146 174 176 184 187 220 203 160 161 167 153 140 134 136 139 141 142 143 141 141 158 161 149 148 156 164 163 163 177 178 173 172 174 175 174 176 175 169 168 169 171 169 163 164
107 121 135 151 195 229 197 179 175 177 175 169 156 149 145 149 153 153 155 149 142 145 145 145 161 165 165 161 177 177 170 170 166 166 175 176 169 171 174 177 174 169 168 170
51 72 94 126 210 157 156 179 187 186 181 165 150 146 148 158 163 161 158 153 148 146 157 162 164 150 149 155 174 178 177 171 164 167 170 170 175 181 180 177 176 173 171 172
17 58 91 89 349 19 320 202 192 180 167 162 154 154 165 168 171 167 160 152 150 152 160 147 128 126 137 166 177 175 176 175 175 175 172 175 184 185 178 177 177 174 175 172
325 83 189 224 198 181 192 216 210 188 177 172 168 162 167 169 164 163 145 132 129 143 150 131 134 140 158 180 185 181 183 187 190 186 177 177 179 175 172 171 176 175 166 159
297 257 226 226 215 215 209 207 202 195 192 179 170 166 168 174 167 150 142 139 142 149 143 144 153 162 180 194 194 189 187 187 182 179 185 178 171 168 170 174 178 171 158 154
261 262 268 237 224 221 217 215 209 190 176 159 155 159 163 161 149 138 136 142 146 146 142 147 163 178 189 195 193 180 167 165 176 184 176 173 170 162 152 147 146 149 152 152
233 218 217 214 206 212 201 186 187 185 170 153 156 162 160 143 138 138 136 138 143 147 147 149 156 167 186 189 157 139 135 144 151 152 147 142 132 127 126 127 126 126 130 132
Height
1470 1464 1463 1465 1467 1466 1470 1471 1478 1477 1479 1479 1476 1481 1486 1490 1494 1498 1503 1507 1510 1514 1517 1520 1523 1526 1528 1530 1532 1533 1534 1536 1537 1537 1538 1538 1539 1539 1539 1539 1539 1538 1538 1537
1476 1468 1465 1465 1461 1462 1464 1466 1468 1469 1473 1470 1475 1481 1486 1490 1493 1498 1502 1506 1510 1513 1516 1520 1522 1525 1527 1529 1531 1532 1534 1535 1536 1537 1537 1538 1538 1539 1539 1539 1539 1539 1538 1538
1481 1471 1469 1473 1461 1460 1460 1460 1464 1470 1470 1469 1475 1478 1484 1488 1492 1497 1501 1505 1509 1512 1515 1518 1521 1523 1526 1528 1530 1531 1533 1534 1535 1536 1537 1538 1539 1539 1539 1539 1539 1539 1539 1539
1480 1478 1489 1465 1450 1452 1456 1458 1458 1461 1464 1468 1474 1478 1484 1488 1492 1496 1501 1505 1508 1511 1514 1517 1520 1523 1525 1527 1528 1530 1532 1533 1535 1535 1536 1537 1538 1538 1539 1539 1539 1539 1539 1539
1481 1483 1476 1459 1451 1451 1457 1461 1457 1460 1464 1469 1474 1480 1485 1489 1492 1497 1500 1504 1508 1511 1514 1516 1518 1521 1523 1526 1527 1529 1531 1532 1533 1535 1536 1536 1537 1538 1538 1539 1539 1540 1540 1540
1478 1484 1483 1462 1449 1450 1456 1465 1459 1461 1465 1470 1474 1481 1486 1489 1492 1497 1500 1503 1507 1510 1512 1515 1517 1520 1522 1524 1526 1528 1529 1531 1532 1534 1535 1535 1536 1537 1538 1538 1539 1540 1540 1541
1478 1478 1468 1454 1450 1451 1469 1470 1462 1463 1467 1470 1474 1479 1484 1487 1491 1496 1499 1503 1506 1508 1511 1514 1516 1518 1520 1523 1524 1526 1528 1530 1531 1533 1534 1535 1536 1537 1538 1539 1539 1540 1540 1541
1474 1477 1473 1455 1453 1458 1464 1463 1464 1467 1469 1473 1476 1480 1485 1488 1492 1495 1498 1502 1504 1507 1510 1512 1515 1517 1518 1521 1523 1525 1527 1529 1530 1532 1533 1534 1535 1536 1538 1538 1539 1540 1540 1541
1467 1468 1463 1461 1461 1463 1464 1465 1467 1470 1472 1475 1478 1482 1486 1490 1492 1495 1498 1501 1503 1506 1508 1511 1513 1515 1517 1519 1522 1523 1525 1527 1529 1531 1532 1533 1535 1536 1537 1538 1539 1539 1540 1541
1464 1464 1463 1464 1464 1465 1466 1468 1470 1472 1474 1476 1480 1483 1487 1490 1493 1496 1498 1500 1503 1505 1507 1510 1512 1514 1516 1518 1520 1522 1523 1525 1527 1529 1531 1532 1534 1535 1537 1538 1539 1539 1540 1540
1463 1465 1466 1466 1466 1467 1468 1470 1472 1474 1476 1478 1480 1483 1486 1489 1493 1495 1498 1500 1502 1504 1506 1508 1510 1512 1515 1516 1518 1520 1522 1524 1526 1528 1530 1531 1533 1534 1536 1537 1538 1539 1539 1540
1464 1466 1466 1467 1468 1470 1470 1471 1472 1474 1476 1478 1480 1483 1486 1489 1492 1495 1497 1499 1501 1503 1505 1507 1509 1511 1513 1515 1516 1518 1520 1522 1524 1527 1529 1530 1531 1533 1534 1536 1537 1538 1539 1540
1464 1464 1466 1468 1469 1471 1471 1471 1472 1474 1476 1478 1481 1483 1486 1489 1491 1494 1496 1497 1500 1501 1503 1505 1507 1509 1511 1513 1515 1517 1519 1521 1524 1526 1527 1529 1530 1531 1532 1534 1536 1537 1538 1539
1464 1465 1467 1469 1471 1472 1473 1473 1474 1475 1477 1478 1480 1483 1485 1488 1490 1492 1494 1496 1498 1500 1502 1504 1506 1508 1510 1512 1514 1516 1518 1520 1522 1524 1526 1528 1529 1530 1531 1532 1533 1535 1536 1538
1466 1467 1469 1470 1472 1472 1473 1473 1474 1476 1477 1479 1480 1481 1484 1487 1489 1491 1493 1495 1497 1499 1501 1502 1504 1507 1509 1511 1512 1514 1517 1519 1520 1522 1524 1526 1528 1529 1530 1531 1532 1533 1534 1536
1466 1468 1469 1470 1471 1472 1473 1474 1475 1476 1477 1478 1479 1481 1484 1487 1489 1490 1492 1494 1495 1497 1499 1501 1503 1504 1507 1509 1511 1513 1515 1517 1518 1520 1522 1524 1526 1527 1529 1530 1531 1532 1533 1534
1466 1467 1468 1470 1471 1472 1474 1474 1476 1477 1477 1479 1480 1482 1484 1486 1488 1489 1491 1493 1495 1496 1498 1499 1501 1503 1505 1507 1509 1512 1514 1515 1517 1519 1521 1523 1524 1526 1527 1528 1529 1530 1531 1532
1467 1468 1468 1469 1471 1473 1474 1475 1476 1477 1478 1479 1481 1483 1484 1485 1487 1489 1490 1492 1494 1495 1497 1498 1499 1501 1503 1505 1508 1510 1512 1514 1515 1517 1519 1521 1522 1524 1525 1527 1528 1528 1530 1531
1466 1468 1469 1470 1472 1473 1473 1475 1476 1477 1478 1479 1481 1482 1483 1485 1486 1488 1489 1491 1492 1493 1495 1497 1498 1499 1501 1503 1505 1508 1510 1512 1514 1516 1517 1519 1521 1523 1524 1525 1526 1527 1528 1529
1467 1468 1469 1470 1472 1472 1473 1474 1476 1477 1478 1479 1480 1482 1483 1485 1486 1487 1488 1489 1491 1492 1494 1495 1496 1498 1499 1502 1504 1507 1509 1511 1513 1514 1516 1518 1519 1521 1522 1523 1524 1525 1527 1527
1467 1468 1469 1470 1471 1472 1473 1474 1475 1476 1477 1479 1480 1481 1482 1484 1486 1486 1487 1488 1490 1491 1493 1494 1495 1497 1499 1501 1503 1506 1508 1510 1511 1512 1514 1516 1517 1519 1520 1521 1523 1524 1525 1526
1468 1468 1469 1470 1471 1472 1473 1473 1474 1476 1477 1478 1479 1481 1482 1484 1485 1486 1487 1488 1489 1491 1492 1494 1495 1496 1498 1500 1502 1504 1506 1508 1509 1511 1513 1514 1516 1517 1519 1520 1521 1522 1523 1524
1468 1468 1469 1470 1471 1471 1472 1473 1474 1475 1476 1478 1479 1480 1482 1483 1484 1485 1486 1488 1489 1490 1492 1493 1494 1496 1498 1499 1502 1504 1505 1507 1508 1510 1511 1513 1514 1515 1517 1518 1519 1520 1520 1522
1467 1468 1468 1469 1470 1470 1471 1472 1473 1474 1476 1477 1478 1479 1481 1482 1483 1484 1486 1487 1488 1490 1491 1493 1494 1496 1497 1499 1501 1503 1505 1506 1507 1509 1510 1511 1512 1513 1514 1516 1517 1518 1519 1520
1467 1467 1468 1468 1469 1469 1470 1471 1473 1474 1475 1476 1477 1478 1480 1481 1483 1484 1486 1486 1488 1490 1491 1492 1494 1495 1497 1499 1501 1502 1504 1505 1506 1507 1508 1510 1511 1512 1513 1514 1515 1516 1517 1518
1466 1466 1467 1467 1468 1469 1470 1471 1472 1473 1474 1475 1476 1478 1479 1481 1482 1484 1485 1487 1488 1490 1491 1492 1493 1495 1497 1499 1500 1501 1503 1504 1505 1506 1507 1508 1509 1510 1511 1512 1513 1514 1515 1516
1465 1465 1465 1466 1467 1468 1469 1470 1471 1472 1473 1474 1475 1477 1479 1480 1482 1483 1485 1487 1488 1490 1491 1493 1494 1495 1497 1498 1500 1501 1502 1503 1504 1505 1506 1507 1508 1509 1510 1511 1512 1512 1513 1514